Regional Weather Roundup
Issued by NWS

Home | Current Version | Previous Version | Graphics & Text | Print | Product List | Glossary On
Versions: 1 2 3 4 5 6 7 8 9 10 11 12 13 14 15 16 17 18 19 20 21 22 23 24 25 26 27 28 29 30 31 32 33 34 35 36 37 38 39 40 41 42 43 44 45 46 47 48 49 50
664
ASUS44 KMEG 271910
RWRTN
TENNESSEE HOURLY STATE WEATHER ROUNDUP
NATIONAL WEATHER SERVICE MEMPHIS TN
200 PM CDT TUE SEP 27 2016

TNZ002-004-019-021-049-052-054-088>092-272000-
WEST TENNESSEE

CITY           SKY/WX    TMP DP  RH WIND       PRES   REMARKS
MEMPHIS INTL   MOSUNNY   80  45  28 NW10G18   30.00F
NWS MEMPHIS      N/A     77 N/A N/A MISG        N/A
JACKSON        SUNNY    N/A N/A N/A NE5       30.00F
DYERSBURG      SUNNY    N/A N/A N/A MISG        N/A
UNION CITY     SUNNY     75  43  31 VRB7      29.98F
PARIS          SUNNY     73  43  33 VRB6      30.00F
HUNTINGDON     SUNNY     75  41  29 CALM      29.98F
LEXINGTON      SUNNY     75  43  31 N7        29.99F
$$

TNZ008-025-027-028-033-062-065-066-272000-
NORTH MIDDLE TENNESSEE

CITY           SKY/WX    TMP DP  RH WIND       PRES   REMARKS
NASHVILLE      MOSUNNY   77  44  30 N8        29.98F
PORTLAND       SUNNY     73  41  31 VRB6      29.98F
CLARKSVILLE    SUNNY     74  39  28 CALM      29.98F
SMYRNA         SUNNY     76  43  30 W12       29.98F
COOKEVILLE     SUNNY     75  50  41 VRB6      29.96F
GALLATIN       SUNNY     75  41  29 N8        29.99F
CROSSVILLE     MOSUNNY   78  34  20 NW9       29.98F
$$

TNZ061-075-076-078-094-096-097-272000-
SOUTH MIDDLE TENNESSEE

CITY           SKY/WX    TMP DP  RH WIND       PRES   REMARKS
FAYETTEVILLE   SUNNY     79  43  27 NW5       29.96F
TULLAHOMA      SUNNY     79  39  24 NW6       29.98F
WINCHESTER     MOSUNNY   79  55  44 W5        29.96F
MCMINNVILLE    SUNNY     75  46  35 VRB3      29.97F
COLUMBIA       SUNNY     75  45  33 VRB3      29.97F
SHELBYVILLE    SUNNY     79  46  31 NW3       29.98F
$$

TNZ017-018-042-046-047-272000-
NORTHEAST TENNESSEE

CITY           SKY/WX    TMP DP  RH WIND       PRES   REMARKS
TRI CITIES     CLOUDY    71  64  78 NW6       29.95F
ELIZABETHTON   DRIZZLE   75  64  69 W7        29.94F
$$

TNZ012-013-036-069-073-074-272000-
CENTRAL EAST TENNESSEE

CITY           SKY/WX    TMP DP  RH WIND       PRES   REMARKS
KNOXVILLE      CLOUDY    78  64  61 SW8       29.92F
OAK RIDGE      SUNNY     79  54  41 VRB5      29.94F
DOWNTOWN KNOXV PTSUNNY   79  63  57 W6G13     29.93F
GATLINBURG     PTSUNNY   79  63  57 SW6       29.92F
MORRISTOWN     PTSUNNY   73  61  64 NW7       29.94F
JACKSBORO      SUNNY     79  43  27 VRB5      29.97F
$$

TNZ083-085-099-272000-
SOUTHEAST TENNESSEE

CITY           SKY/WX    TMP DP  RH WIND       PRES   REMARKS
CHATTANOOGA    MOSUNNY   79  64  60 CALM      29.93F
$$

SKY/WX REPORTED AS FAIR MEANS FEW OR NO CLOUDS BELOW
12 THOUSAND FEET.





USA.gov is the U.S. government's official web portal to all federal, state and local government web resources and services.